Flag for Canada Weather past 2 weeks in Riverview, New Brunswick, Canada

Now
27 °F

Mostly cloudy.


Feels Like: 16 °F
Forecast: 2 / 27 °F
Wind: 13 mph from Northwest

Location: Moncton

Current Time: Mar 5, 2015 at 6:26:55 AM

Latest Report: Mar 5, 2015 at 6:00 AM


Visibility: 15 mi

Pressure: 29.70 "Hg

Humidity: 54%

Dew point: 12 °F

Location of RiverviewLocation

Historic Weather in Riverview — Graph

°F

Riverview temperature yesterday

Maximum temperature yesterday: 39 °F (at 1:00 PM)
Minimum temperature yesterday: 10 °F (at 12:00 AM)
Average temperature yesterday: 27 °F

Past Weeks' High & Low Weather Summary

 TemperatureHumidityPressure
High39 °F (Mar 4, 1:00 PM)100% (Feb 22, 9:00 AM)30.62 "Hg (Feb 22, 9:00 AM)
Low-13 °F (Feb 24, 5:00 AM)35% (Feb 21, 3:00 PM)29.26 "Hg (Feb 20, 4:46 AM)
Average15 °F70%29.95 "Hg
* Reported Feb 18 5:00 AM — Mar 5 5:00 AM, Riverview, Weather by CustomWeather, © 2015

Note: Actual official high and low records may vary slightly from our data, if they occured in-between our weather recording intervals... More about our weather records

Advertising

Riverview weather history for previous 24 hours

 ConditionsComfort  
Time TempWeatherWind HumidityBarometerVisibility
5:00 AM
Thu, Mar 5
28 °FMostly cloudy.10 mph59%29.66 "Hg15 mi
4:00 AM28 °FChilly.10 mph64%29.64 "Hg15 mi
3:00 AM28 °FOvercast.13 mph64%29.64 "Hg15 mi
2:00 AM28 °FOvercast.8 mph64%29.66 "Hg15 mi
1:00 AM27 °FOvercast.7 mph69%29.65 "Hg15 mi
12:00 AM27 °FPassing clouds.6 mph64%29.64 "Hg15 mi
11:00 PM
Wed, Mar 4
28 °FOvercast.12 mph64%29.65 "Hg15 mi
10:00 PM28 °FPassing clouds.9 mph69%29.61 "Hg15 mi
9:00 PM30 °FPassing clouds.15 mph75%29.61 "Hg15 mi
8:00 PM28 °FPassing clouds.8 mph74%29.60 "Hg15 mi
6:00 PM34 °FScattered clouds.16 mph65%29.55 "Hg15 mi
5:00 PM36 °FPartly sunny.21 mph60%29.54 "Hg15 mi
4:00 PM37 °FScattered clouds.25 mph52%29.53 "Hg15 mi
3:45 PM36 °FScattered clouds.24 mph56%29.53 "Hg15 mi
3:00 PM37 °FPartly sunny.24 mph56%29.52 "Hg15 mi
2:00 PM37 °FPartly sunny.26 mph56%29.49 "Hg15 mi
1:00 PM39 °FPartly sunny.22 mph56%29.47 "Hg15 mi
12:00 PM36 °FPartly sunny.17 mph70%29.46 "Hg15 mi
11:00 AM34 °FPartly sunny.9 mph81%29.48 "Hg15 mi
10:00 AM28 °FSnow flurries. Overcast.6 mph86%29.50 "Hg8 mi
9:00 AM27 °FSnow flurries. Overcast.9 mph86%29.52 "Hg12 mi
8:00 AM25 °FCloudy.7 mph86%29.55 "Hg15 mi
7:52 AM25 °FMostly cloudy.10 mph86%29.55 "Hg15 mi
7:00 AM21 °FLight snow. Mostly cloudy.12 mph93%29.58 "Hg15 mi
6:00 AM21 °FLight snow. Mostly cloudy.14 mph80%29.63 "Hg15 mi
Weather by CustomWeather, © 2015

See weather overviewHow to use our weather pages